STARLINK-32902, 62898

Orbit data source: Space-Track

STARLINK-32902, 62898 is a payload satellite owned by SpaceX/Seattle (US) in LEO that was launched on Tue, 04 Feb 2025 UTC via an FALCON 9 launch vehicle from the Air Force Eastern Test Range (AFETR). Payload-class satellites include a variety of spacecraft equipped with specific instruments for various scientific and technological missions. These include communications satellites like Starlink; space stations such as the ISS; scientific satellites like the Hubble; Earth observation satellites from companies like Planet Labs, Umbra, and HawkEye 360; GPS; miniature CubeSats for education and research; and military/defense satellites.

Loading next visibility...
Identifier
62898, 2025-024V
Orbit
LEO
Country
Flag of USUS
Related business
Manufacturer
SpaceX/Seattle
Mission
Operational Commercial Communications
Bus & Motor
STARLINK V2M, Unknown motor
Mass
730 kg wet, ~700 kg dry
Launch date (UTC)
Icon of a cake. It is the launch day of the satellite!2025-02-04 (1 year ago)
Launch vehicle
FALCON 9
Launch site
Air Force Eastern Test Range (AFETR)
Object type
Payload
Rocket body
Debris
Shape & HBR
Box + 2 Pan, 17.7 m
Radar Cross Section
33.884 m², Large (>1 m²)

Expand to show TLE details & history
Last TLE update: 13 hours ago

TLE from 13 hours ago
0 STARLINK-32902
1 62898U 25024V   26035.29755445  .00031493  00000-0  11482-2 0  9991
2 62898  43.0049 153.5458 0003794 280.2527  79.7897 15.27601161 57161
Epoch: 2026-02-04T07:08Z
TLE epoch observation values (Epoch: 2026-02-04T07:08:28.704Z)
Latitude
-0.00001°
Longitude
-88.03996°
Altitude
482.301 km
Speed
7.626 km/s
True Right ascension
10h 14m 10s
True Declination
0° 00' 00"
Sunlit
Object was in full shadow at epoch
Visualization orbit readout
Latitude
Unknown
Longitude
Unknown
Altitude
Unknown
Speed
Unknown
Apparent Right ascension
Unknown
Apparent Declination
Unknown
Sunlit
N/A
Visualization observer readout
Local Sidereal Time
21:47:46
Azimuth
Unknown
Elevation
Unknown
Doppler factor
Unknown
Orbital elements
Apogee altitude
487.534 km
Perigee altitude
482.326 km
Semi-major axis
6,863.067 km
Eccentricity
0.00038
Inclination
43.0049°
RAAN
153.5458°
Arg. of periapsis
280.2527°
True anomaly
79.83249°
Mean anomaly
79.7897°
Eccentric anomaly
79.8111°
Mean motion
3.81738 °/min
Orbital period
94.31 mins
BSTAR
0.0011482
Loading maneuver chart data...
Computing Atmospheric mass density...
Loading historical data...
Loading historical data...
Loading historical data...
Loading historical data...
Loading historical data...
Loading historical data...
Loading historical data...

Documentation

Showing up to 5 results
|